Погода в Ковшово

Россия / Ивановская область     56°48′53″N   41°51′17″E
темп.,
°C
ветер,
м/с
пор.,
м/с
влажн.,
%
обл.,
%
осадки,
мм/ч
давл.,
гПа
погр.,
м
14 мая, пт
пт1400:00+11ю119630 0.0 101814
03:00+10ю11944 0.0 101910
06:00+12юз11947 0.0 101964
09:00+17вюв2277100 0.0 1019427
12:00+20юв235999 0.0 10181065
15:00+22ююв245116 0.3 10171677
18:00+21юв256683 0.1 1016232
21:00+16в2286100 0.6 101534
15 мая, сб
сб1500:00+15вюв2697100 2.4 1015164
03:00+14юв3897100 3.4 1014164
06:00+15юв2596100 0.0 1013141
09:00+20ю248080 0.0 1013401
12:00+24вюв5867100 1.8 1011893
15:00+22зюз4878100 5.1 1010760
18:00+17ю49934 3.2 1011291
21:00+16ю41295100 3.3 1011453
16 мая, вс
вс1600:00+14ю3109880 0.0 1011238
03:00+13ю28975 0.0 1012185
06:00+14ююз39945 0.0 1013308
09:00+19ююз586852 0.0 1013948
12:00+22ююз6104916 0.0 10132119
15:00+23юз611466 0.0 10132529
18:00+20зюз49655 0.2 10131042
21:00+15юз27880 0.2 1014141
17 мая, пн
пн1700:00+13юз26940 0.0 1015122
03:00+12ююз2295100 0.0 101640
06:00+14ююз1285100 0.0 101688
09:00+20ю236217 0.0 1017487
12:00+24ююв234764 0.0 10161396
15:00+25юв2347100 0.0 10151558
18:00+24в256553 0.0 1014221
21:00+18в378953 0.2 1014131
18 мая, вт
вт1800:00+16ююв28867 0.0 1014125
03:00+14юв268894 0.0 1013101
06:00+17юв388186 0.0 1013206
09:00+24ююв494724 0.0 1012562
12:00+28ююв59315 0.0 10121243
15:00+29ююв58330 0.0 10112168
18:00+25юв4104964 0.0 1010612
21:00+20юв4146590 0.0 1011475